SB KEPS @ AMSAT $ORB11153.N 2Line Orbital Elements 11153.AMSAT
HR AMSAT ORBITAL ELEMENTS FOR AMATEUR SATELLITES IN NASA FORMAT FROM WA5QGD FORT WORTH,TX June 2, 2011 Send Subscribe/unsubscribe to KEPS at http://www.amsat.org/mailman/listinfo/keps BID: ORB11153.N
DECODE 2-LINE ELSETS WITH THE FOLLOWING KEY: 1 AAAAAU 00 0 0 BBBBB.BBBBBBBB .CCCCCCCC 00000-0 00000-0 0 DDDZ 2 AAAAA EEE.EEEE FFF.FFFF GGGGGGG HHH.HHHH III.IIII JJ.JJJJJJJJKKKKKZ KEY: A-CATALOGNUM B-EPOCHTIME C-DECAY D-ELSETNUM E-INCLINATION F-RAAN G-ECCENTRICITY H-ARGPERIGEE I-MNANOM J-MNMOTION K-ORBITNUM Z-CHECKSUM
TO ALL RADIO AMATEURS BT
AO-07 1 07530U 74089B 11153.63138788 -.00000027 00000-0 10000-3 0 937 2 07530 101.3911 160.7465 0011729 309.3328 050.6702 12.53582544672363 FO-29 1 24278U 96046B 11152.96884108 -.00000006 00000-0 33518-4 0 05988 2 24278 098.5405 299.1454 0349763 296.7563 059.8187 13.52961795730400 SO-33 1 25509U 98061B 11153.76809957 .00000510 00000-0 90844-4 0 9802 2 25509 031.4329 325.8681 0353006 115.5923 248.1610 14.28408775658211 RS-22 1 27939U 03042A 11153.93446165 .00000343 00000-0 74653-4 0 3159 2 27939 097.8476 008.6133 0014368 034.5079 325.7065 14.63589641410251 VO-52 1 28650U 05017B 11152.70170881 .00001020 00000-0 13408-3 0 08100 2 28650 097.6417 196.5244 0026140 210.4663 149.5015 14.82069412328457 SO-67 1 35870U 09049F 11153.93974453 .00001928 00000-0 90610-4 0 8966 2 35870 097.2821 197.7736 0003913 078.3698 014.9286 15.20745717 94777 HO-68 1 36122U 09072B 11153.87317568 -.00000045 00000-0 00000 0 0 4329 2 36122 100.4155 214.8998 0007124 258.3391 101.6917 13.16286502 70352 UO-11 1 14781U 84021B 11152.92683223 .00000462 00000-0 68123-4 0 05768 2 14781 098.0064 209.6843 0008994 181.0405 179.0791 14.79975227463539 AO-16 1 20439U 90005D 11153.90699819 .00000076 00000-0 43950-4 0 2007 2 20439 098.3834 104.0028 0010251 202.2883 157.7854 14.31922014115577 LO-19 1 20442U 90005G 11152.94074042 .00000055 00000-0 35937-4 0 01292 2 20442 098.3441 107.4807 0011423 198.1105 161.9670 14.32147637115618 AO-27 1 22825U 93061C 11152.88992893 .00000142 00000-0 72785-4 0 08375 2 22825 098.5316 097.6591 0007998 326.5634 033.5035 14.29348716922009 IO-26 1 22826U 93061D 11153.94201449 .00000073 00000-0 45443-4 0 5757 2 22826 098.5253 099.1691 0008471 318.0829 041.9702 14.29610850922271 GO-32 1 25397U 98043D 11152.51557729 .00000111 00000-0 67068-4 0 04956 2 25397 098.3235 145.9158 0001238 010.1377 349.9822 14.23209936669731 NO-44 1 26931U 01043C 11153.90971738 .00000164 00000-0 96247-4 0 7669 2 26931 067.0546 020.3183 0006791 258.4617 101.5681 14.29662139504884 SO-50 1 27607U 02058C 11152.77674333 .00000118 00000-0 40024-4 0 04806 2 27607 064.5604 014.5043 0070861 324.5819 035.0547 14.71748453453820 CO-55 1 27844U 03031E 11152.61363286 .00000134 00000-0 82124-4 0 1224 2 27844 098.7053 161.5408 0008831 243.5953 116.4323 14.20811813410706 CO-57 1 27848U 03031J 11152.55462028 .00000091 00000-0 62766-4 0 00721 2 27848 098.7113 160.6663 0008687 248.5539 111.4727 14.20591039410645 AO-51 1 28375U 04025K 11152.90183394 .00000065 00000-0 31914-4 0 09862 2 28375 098.0970 132.1528 0084420 115.8177 245.1750 14.40757991363867 CP3 1 31129U 07012N 11152.64932503 .00000218 00000-0 60599-4 0 08856 2 31129 097.8992 177.7601 0101010 228.7474 130.4985 14.52483984218580 CO-65 1 32785U 08021C 11152.61678803 .00001023 00000-0 13538-3 0 00063 2 32785 097.8502 216.8068 0013852 224.0333 135.9787 14.82001307167230 KKS-1 1 33493U 09002B 11153.91132011 .00001400 00000-0 18414-3 0 6388 2 33493 098.1226 282.3161 0021178 087.8825 272.4805 14.81698438127406 SOHLA-1 1 33496U 09002E 11152.93518356 .00000170 00000-0 36850-4 0 04401 2 33496 098.0778 262.9210 0006828 163.3553 196.7876 14.69617791126248 TISAT-1 1 36799U 10035E 11153.87686584 .00000883 00000-0 12219-3 0 9139 2 36799 098.1029 221.9846 0014511 328.1627 031.8706 14.80556021 48197 STUDSAT 1 36801U 10035G 11153.75063456 .00002545 00000-0 33829-3 0 1923 2 36801 098.1057 221.7181 0012633 316.3822 043.6389 14.80613378 48165 RAX 1 37223U 0 11152.36844328 .00000635 00000-0 96781-4 0 01738 2 37223 071.9713 073.6151 0021634 311.5989 048.3343 14.77415682028541 OOREOS 1 37224U 10062C 11076.42207246 .00000868 00000-0 13086-3 0 01095 2 37224 071.9712 241.3960 0017800 096.5373 263.7815 14.76929834017329 FO-69 1 37227U 0 11153.35663741 .00000327 00000-0 54784-4 0 00420 2 37227 071.9700 071.9679 0018069 305.1996 054.7473 14.76589887007137 NANOSALD 1 37361U 0 11146.82501643 .00090820 00000-0 82163-2 0 02086 2 37361 071.9526 082.7196 0020972 209.8190 150.1642 14.94739815018924 FO-70 1 37380U 0 11153.36795125 .00000320 00000-0 53950-4 0 01780 2 37380 071.9740 072.0322 0018776 302.7299 057.2062 14.76356596028675 NOAA-10 1 16969U 86073A 11152.71900643 -.00000077 00000-0 -13373-4 0 05202 2 16969 098.6193 182.7156 0011355 271.2189 088.7661 14.27462091285449 NOAA-11 1 19531U 88089A 11152.78457120 .00000203 00000-0 12764-3 0 05215 2 19531 098.7522 240.5386 0010534 230.4074 129.6163 14.14917603170579 NOAA-12 1 21263U 91032A 11152.92774627 .00000086 00000-0 54890-4 0 00369 2 21263 098.7506 170.7981 0011461 229.5767 130.4412 14.25713740042235 MET-3/5 1 21655U 91056A 11152.78825541 .00000051 00000-0 10000-3 0 1240 2 21655 082.5596 061.6556 0012798 190.6263 169.4625 13.17029817951691 MET-2/21 1 22782U 93055A 11152.63687406 .00000029 00000-0 12365-4 0 01111 2 22782 082.5471 335.2172 0023314 139.3880 220.9011 13.83658115896401 OKEAN-4 1 23317U 94066A 11152.91641562 .00000490 00000-0 57083-4 0 06396 2 23317 082.5416 027.4008 0022131 164.5251 195.6645 14.83073310898289 NOAA-14 1 23455U 94089A 11152.96170841 -.00000061 00000-0 -90344-5 0 05209 2 23455 098.8515 235.7483 0009096 328.6345 031.4280 14.13819803846929 NOAA-15 1 25338U 98030A 11152.57648368 .00000143 00000-0 79830-4 0 08356 2 25338 098.6518 138.9331 0011290 133.8611 226.3502 14.24918363678501 RESURS 1 25394U 98043A 11152.93266732 -.00000030 00000-0 45829-5 0 08272 2 25394 098.3008 156.7966 0000711 325.2312 034.8823 14.24233783670132 FENGYUN1 1 25730U 99025A 11153.96522189 .00000553 00000-0 34598-3 0 3398 2 25730 098.8143 115.4760 0025395 356.4530 003.6453 14.08614365621060 OKEAN-0 1 25860U 99039A 11153.90415609 .00000243 00000-0 44519-4 0 3233 2 25860 097.8832 120.7428 0001851 055.3717 304.7665 14.73786551638552 NOAA-16 1 26536U 00055A 11152.56532236 .00000366 00000-0 22282-3 0 03172 2 26536 099.1389 182.7886 0011426 078.6647 281.5814 14.12622273551151 NOAA-17 1 27453U 02032A 11152.72100908 .00000257 00000-0 12894-3 0 03080 2 27453 098.3795 193.1402 0011532 189.5569 170.5393 14.24277593464454 NOAA-18 1 28654U 05018A 11152.71759460 .00000138 00000-0 10097-3 0 07886 2 28654 098.9932 103.8270 0014731 145.2248 214.9883 14.11477750310747 NOAA-19 1 33591U 09005A 11152.71138703 -.00000102 00000-0 -32354-4 0 09799 2 33591 098.8250 093.1262 0014759 023.5081 336.6750 14.11169348119204 HUBBLE 1 20580U 90037B 11152.23076218 .00000817 00000-0 49136-4 0 07747 2 20580 028.4692 120.6850 0003093 308.8152 051.2073 15.01371121957250 ISS 1 25544U 98067A 11153.74383836 .00022373 00000-0 14647-3 0 4619 2 25544 051.6505 234.6982 0005699 004.0868 136.4001 15.75694979718635 CO-58 1 28895U 05043F 11152.64627693 .00000237 00000-0 58526-4 0 08897 2 28895 097.9707 029.6353 0016703 270.3036 089.6255 14.60104922297977 FALCON 1 30776U 07006E 11152.98091667 .00002375 00000-0 16859-3 0 01027 2 30776 035.4328 079.4373 0002162 312.7606 047.2935 15.04624687232751 MAST 1 31126U 07012K 11152.75564935 .00000218 00000-0 59494-4 0 01861 2 31126 097.8944 180.8521 0093717 218.0479 141.4071 14.53748645218847 CAPE1 1 31130U 07012P 11152.65857714 .00000238 00000-0 65371-4 0 1891 2 31130 097.8983 177.5508 0101348 229.2339 130.0021 14.52392249218384 COMPASS 1 32787U 08021E 11152.61874226 .00001566 00000-0 20172-3 0 00033 2 32787 097.8476 216.7238 0014690 225.0857 134.9171 14.82417661167255 AAUSAT2 1 32788U 08021F 11153.66424686 .00000913 00000-0 11988-3 0 9928 2 32788 097.8487 217.9682 0014236 221.2835 138.7304 14.82601661167428 DO-64 1 32789U 08021G 11153.74590788 .00002160 00000-0 27147-3 0 94 2 32789 097.8578 219.0258 0014482 218.4115 141.6068 14.83063194167440 CO-66 1 32791U 08021J 11152.42961552 .00001306 00000-0 17049-3 0 09968 2 32791 097.8508 216.4856 0015101 223.2381 136.7647 14.82111219167178 RS-30 1 32953U 08025A 11153.98149507 .00000010 00000-0 00000 0 0 7865 2 32953 082.5005 171.5544 0020353 060.1110 300.1991 12.43013205137323 TACSAT-3 1 35001U 09028A 11152.77703441 .00018467 00000-0 33731-3 0 6062 2 35001 040.4514 266.3207 0021599 091.6404 268.6887 15.48651980114698 PHARMSAT 1 35002U 09028B 11152.67574439 .00015921 00000-0 29477-3 0 05686 2 35002 040.4677 264.6098 0023287 099.4319 260.9127 15.48301208114704 HAWKSAT1 1 35003U 09028C 11153.54287413 .00069290 00000-0 70052-3 0 6377 2 35003 040.4564 232.6889 0019967 129.6728 230.5860 15.64066499115136 CP6 1 35004U 09028D 11153.56278888 .00102255 00000-0 80296-3 0 6411 2 35004 040.4540 224.6342 0018715 131.0252 229.2196 15.70159308115210 METEOR-M 1 35865U 09049A 11153.72522719 .00000176 00000-0 10000-3 0 4235 2 35865 098.7067 209.0399 0003480 070.6732 289.4779 14.21839008 88534 RS-38 1 35869U 09049E 11153.72707712 .00000177 00000-0 10000-3 0 4160 2 35869 098.7037 209.0786 0005678 070.5623 289.6133 14.22012447 88542 /EX